AAY3153 KFNT-KPIE

Flight info

Callsign AAY3153
Flight time N/A
Altitude 35000
Route HHRNT DELOW DJB J85 BOBCT/N0448F370 J85 JAMOX/N0445F360 J85 SPA IRQ TEUFL BAAMF DADES2
Aircraft A320/M-SDE3FGHIRWY/LB1

Departure

Time 2026-05-09 13:08
Airport Bishop International Airport (KFNT)

Arrival

Time N/A
Airport St. Petersburg Clearwater International Airport (KPIE)
Time Latitude Longitude Altitude Speed Heading
2026-05-09 12:27 42.97188 -83.73877 773 ft 0 kts
2026-05-09 13:00 42.97184 -83.73877 773 ft 3 kts
2026-05-09 13:00 42.97157 -83.73877 773 ft 4 kts 353°
2026-05-09 13:00 42.97137 -83.73868 773 ft 4 kts 291°
2026-05-09 13:00 42.97135 -83.73861 773 ft 0 kts 268°
2026-05-09 13:05 42.97134 -83.73881 783 ft 4 kts 269°
2026-05-09 13:05 42.97133 -83.73946 773 ft 9 kts 269°
2026-05-09 13:05 42.97140 -83.74054 773 ft 13 kts 279°
2026-05-09 13:06 42.97144 -83.74169 773 ft 10 kts 282°
2026-05-09 13:06 42.97196 -83.74193 773 ft 8 kts 357°
2026-05-09 13:06 42.97244 -83.74196 773 ft 6 kts 352°
2026-05-09 13:06 42.97271 -83.74235 773 ft 6 kts 284°
2026-05-09 13:07 42.97269 -83.74302 773 ft 8 kts 269°
2026-05-09 13:07 42.97223 -83.74346 773 ft 14 kts 182°
2026-05-09 13:07 42.96902 -83.74338 773 ft 88 kts 179°
2026-05-09 13:07 42.96034 -83.74320 794 ft 157 kts 180°
2026-05-09 13:08 42.94897 -83.74295 1453 ft 167 kts 181°
2026-05-09 13:08 42.93722 -83.74271 2422 ft 169 kts 185°
2026-05-09 13:08 42.92496 -83.74267 2988 ft 186 kts 185°
2026-05-09 13:08 42.91121 -83.74085 3263 ft 216 kts 164°
2026-05-09 13:09 42.89816 -83.72806 3616 ft 252 kts 133°
2026-05-09 13:09 42.89052 -83.70523 4165 ft 279 kts 103°
2026-05-09 13:09 42.89076 -83.67830 4939 ft 289 kts 84°
2026-05-09 13:09 42.89363 -83.65094 5843 ft 293 kts 82°
2026-05-09 13:10 42.89662 -83.62328 6869 ft 298 kts 82°
2026-05-09 13:10 42.89957 -83.59496 7830 ft 305 kts 83°
2026-05-09 13:10 42.90135 -83.56588 8737 ft 311 kts 94°
2026-05-09 13:10 42.89994 -83.53630 9624 ft 315 kts 95°
2026-05-09 13:11 42.89843 -83.50630 10286 ft 323 kts 95°
2026-05-09 13:11 42.89677 -83.47464 10498 ft 346 kts 95°
2026-05-09 13:11 42.89498 -83.44099 10890 ft 362 kts 95°
2026-05-09 13:11 42.89314 -83.40642 11592 ft 369 kts 94°
2026-05-09 13:12 42.89126 -83.37132 12326 ft 374 kts 94°
2026-05-09 13:12 42.88934 -83.33573 13069 ft 379 kts 94°
2026-05-09 13:12 42.88743 -83.29971 13776 ft 383 kts 94°
2026-05-09 13:12 42.88440 -83.26345 14462 ft 388 kts 104°
2026-05-09 13:13 42.87522 -83.22886 15109 ft 389 kts 120°
2026-05-09 13:13 42.85975 -83.19868 15712 ft 389 kts 136°
2026-05-09 13:13 42.83916 -83.17512 16362 ft 386 kts 152°
2026-05-09 13:13 42.81514 -83.15955 16999 ft 381 kts 168°
2026-05-09 13:14 42.78938 -83.15163 17587 ft 381 kts 175°
2026-05-09 13:14 42.76322 -83.14500 18171 ft 384 kts 176°
2026-05-09 13:16 42.57401 -83.09669 22090 ft 406 kts 175°
2026-05-09 13:16 42.54615 -83.08955 22599 ft 409 kts 175°
2026-05-09 13:16 42.51806 -83.08238 23093 ft 412 kts 175°
2026-05-09 13:16 42.48980 -83.07511 23538 ft 416 kts 174°
2026-05-09 13:17 42.46175 -83.06398 23949 ft 425 kts 165°
2026-05-09 13:17 42.43482 -83.04638 24347 ft 435 kts 154°
2026-05-09 13:17 42.40903 -83.02466 24745 ft 438 kts 154°
2026-05-09 13:17 42.38314 -83.00287 25134 ft 439 kts 154°
2026-05-09 13:18 42.35749 -82.98142 25522 ft 440 kts 154°
2026-05-09 13:18 42.33139 -82.95969 25913 ft 442 kts 154°
2026-05-09 13:18 42.30517 -82.93791 26294 ft 443 kts 154°
2026-05-09 13:18 42.27851 -82.91575 26664 ft 445 kts 154°
2026-05-09 13:19 42.25247 -82.89410 27019 ft 447 kts 154°
2026-05-09 13:19 42.22592 -82.87206 27378 ft 449 kts 154°
2026-05-09 13:19 42.19930 -82.84996 27729 ft 450 kts 155°
2026-05-09 13:19 42.17256 -82.82774 28045 ft 452 kts 155°
2026-05-09 13:20 42.14584 -82.80554 28450 ft 452 kts 155°
2026-05-09 13:20 42.11905 -82.78331 28795 ft 453 kts 155°
2026-05-09 13:20 42.09218 -82.76105 29148 ft 453 kts 155°
2026-05-09 13:20 42.06530 -82.73880 29479 ft 454 kts 155°
2026-05-09 13:21 42.03834 -82.71653 29799 ft 455 kts 155°
2026-05-09 13:21 42.01131 -82.69422 30055 ft 457 kts 155°
2026-05-09 13:21 41.98414 -82.67182 30270 ft 459 kts 155°
2026-05-09 13:21 41.95682 -82.64937 30439 ft 461 kts 156°
2026-05-09 13:22 41.92945 -82.62690 30663 ft 462 kts 155°
2026-05-09 13:22 41.90201 -82.60434 30863 ft 464 kts 155°
2026-05-09 13:22 41.87450 -82.58174 31124 ft 464 kts 155°
2026-05-09 13:23 41.76943 -82.49564 32116 ft 465 kts 156°
2026-05-09 13:23 41.74175 -82.47300 32372 ft 466 kts 156°
2026-05-09 13:24 41.71410 -82.45041 32623 ft 466 kts 156°
2026-05-09 13:24 41.68640 -82.42785 32891 ft 466 kts 156°
2026-05-09 13:24 41.65873 -82.40533 33150 ft 466 kts 156°
2026-05-09 13:24 41.63100 -82.38281 33428 ft 465 kts 156°
2026-05-09 13:25 41.60342 -82.36041 33761 ft 464 kts 156°
2026-05-09 13:25 41.57582 -82.33800 33985 ft 464 kts 156°
2026-05-09 13:25 41.52048 -82.29318 34376 ft 466 kts 156°
2026-05-09 13:26 41.49276 -82.27074 34539 ft 466 kts 156°
2026-05-09 13:26 41.46500 -82.24827 34735 ft 467 kts 156°
2026-05-09 13:26 41.43718 -82.22581 34913 ft 468 kts 156°
2026-05-09 13:26 41.40934 -82.20335 35083 ft 469 kts 156°
2026-05-09 13:27 41.38114 -82.18178 35247 ft 464 kts 162°
2026-05-09 13:27 41.35160 -82.16554 35402 ft 456 kts 170°
2026-05-09 13:27 41.32116 -82.15522 35548 ft 448 kts 178°
2026-05-09 13:27 41.29088 -82.14945 35682 ft 445 kts 180°
2026-05-09 13:28 41.26009 -82.14385 35808 ft 447 kts 180°
2026-05-09 13:28 41.19854 -82.13240 35831 ft 447 kts 180°
2026-05-09 13:29 41.13701 -82.12082 35832 ft 446 kts 180°
2026-05-09 13:29 41.07549 -82.10941 35802 ft 446 kts 180°
2026-05-09 13:30 41.01393 -82.09807 35851 ft 447 kts 180°
2026-05-09 13:30 40.95237 -82.08674 35855 ft 447 kts 180°
2026-05-09 13:31 40.89075 -82.07540 35857 ft 447 kts 180°
2026-05-09 13:31 40.82914 -82.06405 35835 ft 447 kts 180°
2026-05-09 13:32 40.76754 -82.05281 35840 ft 447 kts 180°
2026-05-09 13:32 40.67511 -82.03585 35845 ft 447 kts 180°
2026-05-09 13:33 40.61348 -82.02464 35831 ft 447 kts 180°
2026-05-09 13:33 40.55162 -82.01341 35847 ft 449 kts 180°
2026-05-09 13:34 40.48972 -82.00209 35850 ft 449 kts 180°
2026-05-09 13:34 40.42781 -81.99082 35855 ft 449 kts 180°
2026-05-09 13:35 40.36590 -81.97970 35865 ft 449 kts 181°
2026-05-09 13:35 40.30396 -81.96854 35864 ft 449 kts 180°
2026-05-09 13:36 40.24204 -81.95731 35865 ft 449 kts 180°
2026-05-09 13:36 40.18010 -81.94614 35827 ft 449 kts 181°
2026-05-09 13:37 40.11814 -81.93506 35839 ft 449 kts 181°
2026-05-09 13:37 40.05622 -81.92396 35868 ft 450 kts 181°
2026-05-09 13:38 39.99422 -81.91280 35873 ft 450 kts 181°
2026-05-09 13:38 39.93214 -81.90164 35865 ft 451 kts 181°
2026-05-09 13:39 39.87022 -81.89059 35880 ft 452 kts 181°
2026-05-09 13:39 39.80785 -81.87955 35889 ft 452 kts 181°
2026-05-09 13:40 39.74552 -81.86848 35890 ft 452 kts 181°
2026-05-09 13:40 39.68324 -81.85859 35865 ft 448 kts 184°
2026-05-09 13:41 39.62127 -81.85400 35879 ft 445 kts 187°
2026-05-09 13:41 39.55945 -81.85142 35884 ft 445 kts 187°
2026-05-09 13:42 39.49751 -81.84792 35862 ft 446 kts 187°
2026-05-09 13:42 39.43552 -81.84362 35876 ft 447 kts 186°
2026-05-09 13:43 39.37344 -81.83910 35887 ft 447 kts 186°
2026-05-09 13:43 39.31129 -81.83474 35894 ft 447 kts 187°
2026-05-09 13:44 39.24915 -81.83056 35893 ft 448 kts 187°
2026-05-09 13:44 39.18679 -81.82629 35905 ft 449 kts 187°
2026-05-09 13:45 39.12444 -81.82202 35910 ft 449 kts 187°
2026-05-09 13:45 39.06207 -81.81778 35877 ft 449 kts 188°
2026-05-09 13:46 38.99972 -81.81356 35879 ft 448 kts 187°
2026-05-09 13:46 38.93738 -81.80934 35888 ft 448 kts 188°
2026-05-09 13:47 38.87506 -81.80519 35891 ft 448 kts 187°
2026-05-09 13:47 38.81277 -81.80089 35878 ft 448 kts 188°
2026-05-09 13:48 38.75025 -81.79663 35902 ft 450 kts 188°
2026-05-09 13:48 38.68769 -81.79253 35906 ft 450 kts 188°
2026-05-09 13:49 38.62515 -81.78828 35911 ft 450 kts 188°
2026-05-09 13:49 38.56258 -81.78400 35885 ft 450 kts 188°
2026-05-09 13:50 38.51064 -81.78050 35897 ft 449 kts 188°
2026-05-09 13:50 38.44821 -81.77640 35910 ft 449 kts 189°
2026-05-09 13:51 38.38579 -81.77228 35912 ft 449 kts 189°
2026-05-09 13:51 38.32394 -81.77111 35905 ft 440 kts 195°
2026-05-09 13:52 38.26268 -81.77425 35912 ft 441 kts 194°
2026-05-09 13:52 38.20143 -81.77722 35916 ft 440 kts 194°
2026-05-09 13:53 38.14029 -81.78017 35914 ft 439 kts 195°
2026-05-09 13:53 38.07917 -81.78315 35907 ft 440 kts 194°
2026-05-09 13:54 38.01806 -81.78620 35911 ft 439 kts 194°
2026-05-09 13:54 37.95732 -81.78919 35911 ft 440 kts 194°
2026-05-09 13:55 37.89614 -81.79216 35881 ft 440 kts 195°
2026-05-09 13:55 37.83503 -81.79515 35903 ft 439 kts 195°
2026-05-09 13:56 37.77395 -81.79819 35922 ft 439 kts 195°
2026-05-09 13:56 37.71292 -81.80116 35925 ft 439 kts 195°
2026-05-09 13:57 37.65208 -81.80404 35888 ft 436 kts 195°
2026-05-09 13:57 37.59155 -81.80690 35904 ft 435 kts 195°
2026-05-09 13:58 37.53119 -81.80990 35913 ft 434 kts 195°
2026-05-09 13:58 37.47081 -81.81287 35924 ft 434 kts 195°
2026-05-09 13:59 37.41049 -81.81571 35899 ft 432 kts 195°
2026-05-09 13:59 37.35052 -81.81860 35914 ft 431 kts 196°
2026-05-09 14:00 37.30079 -81.82108 35912 ft 430 kts 195°
2026-05-09 14:00 37.23081 -81.82444 35974 ft 431 kts 196°
2026-05-09 14:01 37.17095 -81.82727 35941 ft 429 kts 196°
2026-05-09 14:01 37.11135 -81.83005 35974 ft 428 kts 196°
2026-05-09 14:02 37.05185 -81.83291 35973 ft 428 kts 196°
2026-05-09 14:02 36.99281 -81.83580 35978 ft 427 kts 196°
2026-05-09 14:03 36.93344 -81.83864 35943 ft 426 kts 197°
2026-05-09 14:03 36.87417 -81.84143 35964 ft 426 kts 197°
2026-05-09 14:04 36.81513 -81.84421 35969 ft 424 kts 197°
2026-05-09 14:04 36.75617 -81.84699 35979 ft 424 kts 197°
2026-05-09 14:05 36.69730 -81.84984 35940 ft 423 kts 197°
2026-05-09 14:05 36.63866 -81.85264 35976 ft 421 kts 197°
2026-05-09 14:06 36.58047 -81.85539 35982 ft 420 kts 197°
2026-05-09 14:06 36.52213 -81.85813 35952 ft 419 kts 197°
2026-05-09 14:07 36.46405 -81.86087 35895 ft 417 kts 198°
2026-05-09 14:07 36.40604 -81.86360 35921 ft 416 kts 198°
2026-05-09 14:08 36.34822 -81.86626 35931 ft 416 kts 198°
2026-05-09 14:08 36.29038 -81.86898 35954 ft 415 kts 198°
2026-05-09 14:09 36.23271 -81.87168 35939 ft 414 kts 198°
2026-05-09 14:09 36.17503 -81.87441 35897 ft 415 kts 198°
2026-05-09 14:10 36.08831 -81.87865 35908 ft 417 kts 198°
2026-05-09 14:11 36.03033 -81.88136 35913 ft 417 kts 198°
2026-05-09 14:11 35.97234 -81.88405 35872 ft 417 kts 198°
2026-05-09 14:12 35.91420 -81.88680 35926 ft 419 kts 198°
2026-05-09 14:12 35.85588 -81.88946 35980 ft 419 kts 198°
2026-05-09 14:13 35.79767 -81.89200 35973 ft 419 kts 198°
2026-05-09 14:15 35.56490 -81.90272 35997 ft 419 kts 198°
2026-05-09 14:15 35.50664 -81.90540 36000 ft 419 kts 198°
2026-05-09 14:16 35.44838 -81.90807 35969 ft 419 kts 198°
2026-05-09 14:16 35.39014 -81.91076 35980 ft 419 kts 198°
2026-05-09 14:17 35.33183 -81.91346 35984 ft 419 kts 198°
2026-05-09 14:17 35.27349 -81.91606 35980 ft 420 kts 198°
2026-05-09 14:18 35.21513 -81.91865 35939 ft 418 kts 198°
2026-05-09 14:18 35.15665 -81.92135 35964 ft 418 kts 199°
2026-05-09 14:19 35.09895 -81.92401 35976 ft 417 kts 199°
2026-05-09 14:19 35.04094 -81.92665 35984 ft 415 kts 200°
2026-05-09 14:19 35.01279 -81.93061 35989 ft 403 kts 205°
2026-05-09 14:20 34.98504 -81.93565 35988 ft 403 kts 205°
2026-05-09 14:20 34.92957 -81.94565 35961 ft 403 kts 204°
2026-05-09 14:21 34.84646 -81.96060 35969 ft 402 kts 204°
2026-05-09 14:21 34.79102 -81.97047 35969 ft 402 kts 204°
2026-05-09 14:22 34.73564 -81.98037 35975 ft 403 kts 204°
2026-05-09 14:22 34.68001 -81.99041 35981 ft 406 kts 204°
2026-05-09 14:23 34.62410 -82.00041 35988 ft 406 kts 204°
2026-05-09 14:23 34.56809 -82.01034 35994 ft 407 kts 204°
2026-05-09 14:24 34.51210 -82.02026 35997 ft 407 kts 204°
2026-05-09 14:24 34.45607 -82.03027 35966 ft 407 kts 204°
2026-05-09 14:25 34.39986 -82.04030 35975 ft 409 kts 203°
2026-05-09 14:25 34.34345 -82.05023 35992 ft 410 kts 203°
2026-05-09 14:26 34.28697 -82.06019 36007 ft 410 kts 203°
2026-05-09 14:26 34.23045 -82.07020 36015 ft 410 kts 203°